COSMOS 1275 DEB

Satellite information

Favourite Embed

Satellite Type and Status

DEBRISIN ORBIT

Key statistics

Satellite COSMOS 1275 DEB at a glance.

Uptime

16166

Days in orbit

Revolutions

≈ 14.1

Per day

Orbit

LEO

Low Earth Orbit

Inclination

82.9

Latest

Satellite identification and parameters

Extended collection of information and parameters for COSMOS 1275 DEB.

Object identification

Identified? True

Debris? True

Object name: COSMOS 1275 DEB

International designator: 1981-053TC

Object number (NORAD): 42188

Object ID (CCSDS): 42188

Country: COMMONWEALTH OF INDEPENDENT STATES (CIS)

Current information (Y/N): Y

RCS size: SMALL

Orbital parameters

Period: 101.803 minutes

Inclination: 82.8526 deg

SMA: 7222.164 km

Apoapsis: 881.291 km

Periapsis: 806.767 km

RAAN: 355.2756 deg

Eccentricy: 0.00515936

Argument of periapsis: 239.2732 deg

Mean anomaly: 120.3358 deg

Mean motion: 14.14496083 rev/day

Mean motion (dot): 0.00004062 rev/day2

B* drag term: 0.002084288 1/REarth

Two-line elements (TLE)

Creation date: Sept. 5, 2025, 7:38 p.m.

Reference frame: TEME

Reference center: EARTH

Epoch: Sept. 5, 2025, 1:31 p.m. UTC

TLE line 0: 0 COSMOS 1275 DEB

TLE line 1: 1 42188U 81053TC 25248.56376522 .00004062 00000-0 20843-2 0 9998

TLE line 2: 2 42188 82.8526 355.2756 0051594 239.2732 120.3358 14.14496083604306

Live tracking on map

Real-time ground track for satellite COSMOS 1275 DEB.

In-orbit conjunctions

A list of the most updated potential collisions computed for object COSMOS 1275 DEB.

Target Orbit TCA Probability of collision Miss distance Type
CZ-6A DEB LEO 2025-03-16 19:16:50 0.001748389 20.0 (m) DEBRIS
DMSP 5D-2 F13 DEB SSO 2024-12-13 12:19:53 0.0001964344 138.0 (m) DEBRIS
FENGYUN 1C DEB SSO 2024-11-09 09:17:48 0.0001422999 517.0 (m) DEBRIS

Associated space launch

Navigation satellite providing location information for the Tsiklon-B navigation system

COSMOS 1275 DEB was lifted into orbit during the mission ‘Kosmos-3M | Parus 27’, on board a Kosmos-3M space rocket.

The launch took place on June 4, 1981, 3:41 p.m. from 132/2.

For more information about the launch, click the button.

Launch to space Kosmos-3M | Parus 27
Kosmos-3M | Parus 27

Agency: N/A

Status: Launch Successful

Launch date: June 4, 1981, 3:41 p.m. UTC

Rocket: Kosmos-3M

Launch pad: 132/2

Location: Plesetsk Cosmodrome, Russian Federation

...

Latest news about this satellite

There are no fresh news available about this satellite. Check back as we update our databases every day.


Newsletter sign-up

Weekly statistics, charts and insights to help you stay on top of the space industry.